When you browse on this site, cookies collect data to enhance your experience and personalize the content and advertising you see.
Visit our Privacy Policy to learn more. By continuing to use the site, you agree to this use of cookies and data.

Hourly Weather Mamou

Today, 10 August, Monday

Time Temperature Precipitation Wind Pressure Humidity
00:00 +26°C° 0 mm 1 mps 733 mmHg 84%
01:00 +26°C° 0 mm 1 mps 733 mmHg 84%
02:00 +26°C° 0 mm 1 mps 733 mmHg 85%
03:00 +25°C° 0 mm 1 mps 733 mmHg 86%
04:00 +25°C° 0 mm 1 mps 733 mmHg 87%
05:00 +25°C° 0 mm 1 mps 733 mmHg 87%
06:00 +25°C° 0 mm 1 mps 733 mmHg 87%
07:00 +25°C° 0 mm 2 mps 733 mmHg 87%
08:00 +27°C° 0.2 mm 2 mps 734 mmHg 82%
09:00 +28°C° 0.2 mm 3 mps 734 mmHg 76%
10:00 +29°C° 0.2 mm 4 mps 734 mmHg 71%
11:00 +30°C° 0 mm 4 mps 734 mmHg 67%
12:00 +32°C° 0 mm 4 mps 733 mmHg 64%
13:00 +33°C° 0 mm 5 mps 733 mmHg 61%
14:00 +32°C° 0.3 mm 4 mps 732 mmHg 62%
15:00 +32°C° 0.3 mm 4 mps 732 mmHg 63%
16:00 +32°C° 0.3 mm 4 mps 731 mmHg 63%
17:00 +30°C° 0.5 mm 3 mps 731 mmHg 70%
18:00 +28°C° 0.5 mm 2 mps 732 mmHg 77%
19:00 +27°C° 0.5 mm 1 mps 732 mmHg 84%
20:00 +27°C° 0.4 mm 1 mps 732 mmHg 85%
21:00 +26°C° 0.4 mm 1 mps 733 mmHg 86%
22:00 +26°C° 0.4 mm 1 mps 734 mmHg 87%
23:00 +26°C° 0 mm 2 mps 734 mmHg 88%

Tomorrow, 11 August, Tuesday

Time Temperature Precipitation Wind Pressure Humidity
00:00 +26°C° 0 mm 2 mps 734 mmHg 89%
01:00 +25°C° 0 mm 2 mps 734 mmHg 90%
02:00 +25°C° 0.1 mm 2 mps 734 mmHg 91%
03:00 +25°C° 0.1 mm 2 mps 733 mmHg 92%
04:00 +25°C° 0.1 mm 2 mps 733 mmHg 92%
05:00 +25°C° 0 mm 2 mps 734 mmHg 92%
06:00 +25°C° 0 mm 2 mps 734 mmHg 91%
07:00 +25°C° 0 mm 2 mps 735 mmHg 90%
08:00 +26°C° 0 mm 2 mps 735 mmHg 85%
09:00 +27°C° 0 mm 3 mps 735 mmHg 79%
10:00 +28°C° 0 mm 4 mps 736 mmHg 74%
11:00 +29°C° 0.1 mm 4 mps 735 mmHg 71%
12:00 +30°C° 0.1 mm 4 mps 735 mmHg 68%
13:00 +30°C° 0.1 mm 4 mps 734 mmHg 66%
14:00 +31°C° 0.1 mm 3 mps 733 mmHg 65%
15:00 +31°C° 0.1 mm 3 mps 733 mmHg 64%
16:00 +31°C° 0.1 mm 3 mps 732 mmHg 64%
17:00 +30°C° 0 mm 3 mps 732 mmHg 69%
18:00 +29°C° 0 mm 2 mps 733 mmHg 74%
19:00 +27°C° 0 mm 2 mps 733 mmHg 79%
20:00 +27°C° 0 mm 2 mps 734 mmHg 80%
21:00 +27°C° 0 mm 2 mps 734 mmHg 81%
22:00 +26°C° 0 mm 1 mps 735 mmHg 82%
23:00 +26°C° 0 mm 1 mps 735 mmHg 83%

Day after tomorrow, 12 August, Wednesday

Time Temperature Precipitation Wind Pressure Humidity
00:00 +26°C° 0 mm 1 mps 735 mmHg 84%
01:00 +25°C° 0 mm 1 mps 734 mmHg 85%
02:00 +25°C° 0 mm 1 mps 734 mmHg 84%
03:00 +25°C° 0 mm 1 mps 734 mmHg 84%
04:00 +25°C° 0 mm 1 mps 734 mmHg 84%
05:00 +25°C° 0 mm 1 mps 734 mmHg 85%
06:00 +25°C° 0 mm 1 mps 735 mmHg 85%
07:00 +25°C° 0 mm 2 mps 735 mmHg 86%
08:00 +26°C° 0 mm 2 mps 736 mmHg 82%
09:00 +28°C° 0 mm 2 mps 736 mmHg 77%
10:00 +29°C° 0 mm 3 mps 736 mmHg 73%
11:00 +29°C° 0.1 mm 3 mps 736 mmHg 71%
12:00 +30°C° 0.1 mm 3 mps 735 mmHg 69%
13:00 +31°C° 0.1 mm 3 mps 734 mmHg 67%
14:00 +31°C° 0.1 mm 3 mps 734 mmHg 66%
15:00 +31°C° 0.1 mm 3 mps 733 mmHg 66%
16:00 +31°C° 0.1 mm 3 mps 732 mmHg 66%
17:00 +30°C° 0 mm 2 mps 733 mmHg 69%
18:00 +29°C° 0 mm 2 mps 733 mmHg 73%
19:00 +28°C° 0 mm 1 mps 733 mmHg 76%
20:00 +28°C° 0 mm 1 mps 734 mmHg 78%
21:00 +27°C° 0 mm 1 mps 734 mmHg 80%
22:00 +27°C° 0 mm 1 mps 734 mmHg 82%
23:00 +27°C° 0 mm 1 mps 734 mmHg 83%

13 August, Thursday

Time Temperature Precipitation Wind Pressure Humidity
00:00 +27°C° 0 mm 1 mps 734 mmHg 84%
01:00 +26°C° 0 mm 1 mps 733 mmHg 86%
02:00 +26°C° 0.4 mm 2 mps 733 mmHg 87%
03:00 +26°C° 0.4 mm 2 mps 733 mmHg 88%
04:00 +25°C° 0.4 mm 2 mps 733 mmHg 89%
05:00 +25°C° 0.8 mm 2 mps 733 mmHg 90%
06:00 +25°C° 0.8 mm 1 mps 733 mmHg 90%
07:00 +25°C° 0.8 mm 1 mps 734 mmHg 91%
08:00 +25°C° 1.6 mm 1 mps 734 mmHg 91%
09:00 +25°C° 1.6 mm 1 mps 734 mmHg 92%
10:00 +25°C° 1.6 mm 1 mps 735 mmHg 92%
11:00 +26°C° 1.9 mm 2 mps 734 mmHg 92%
12:00 +26°C° 1.9 mm 2 mps 733 mmHg 91%
13:00 +26°C° 1.9 mm 2 mps 733 mmHg 91%
14:00 +26°C° 1.8 mm 3 mps 732 mmHg 91%
15:00 +26°C° 1.8 mm 3 mps 732 mmHg 91%
16:00 +26°C° 1.8 mm 3 mps 731 mmHg 90%
17:00 +26°C° 1.3 mm 2 mps 731 mmHg 92%
18:00 +25°C° 1.3 mm 1 mps 731 mmHg 93%
19:00 +25°C° 1.3 mm 1 mps 731 mmHg 94%
20:00 +25°C° 0.4 mm 1 mps 732 mmHg 94%
21:00 +25°C° 0.4 mm 1 mps 732 mmHg 94%
22:00 +25°C° 0.4 mm 1 mps 733 mmHg 94%
23:00 +25°C° 0.3 mm 1 mps 732 mmHg 94%

14 August, Friday

Time Temperature Precipitation Wind Pressure Humidity
00:00 +25°C° 0.3 mm 1 mps 732 mmHg 94%
01:00 +25°C° 0.3 mm 1 mps 732 mmHg 94%
02:00 +24°C° 0.2 mm 1 mps 731 mmHg 94%
03:00 +24°C° 0.2 mm 1 mps 731 mmHg 94%
04:00 +24°C° 0.2 mm 1 mps 731 mmHg 94%
05:00 +25°C° 0.1 mm 1 mps 731 mmHg 94%
06:00 +25°C° 0.1 mm 1 mps 732 mmHg 93%
07:00 +25°C° 0.1 mm 1 mps 732 mmHg 92%
08:00 +26°C° 0.5 mm 2 mps 732 mmHg 89%
09:00 +27°C° 0.5 mm 3 mps 733 mmHg 86%
10:00 +28°C° 0.5 mm 3 mps 733 mmHg 84%
11:00 +28°C° 1 mm 4 mps 733 mmHg 82%
12:00 +28°C° 1 mm 4 mps 732 mmHg 81%
13:00 +29°C° 1 mm 5 mps 731 mmHg 79%
14:00 +29°C° 0.6 mm 5 mps 731 mmHg 79%
15:00 +29°C° 0.6 mm 4 mps 731 mmHg 78%
16:00 +29°C° 0.6 mm 4 mps 730 mmHg 78%
17:00 +28°C° 0 mm 4 mps 730 mmHg 81%
18:00 +27°C° 0 mm 3 mps 731 mmHg 84%
19:00 +25°C° 0 mm 3 mps 731 mmHg 87%
20:00 +25°C° 0 mm 3 mps 732 mmHg 88%
21:00 +25°C° 0 mm 3 mps 732 mmHg 89%
22:00 +24°C° 0 mm 2 mps 733 mmHg 90%
23:00 +24°C° 0 mm 2 mps 733 mmHg 90%

15 August, Saturday

Time Temperature Precipitation Wind Pressure Humidity
00:00 +24°C° 0 mm 2 mps 733 mmHg 91%
01:00 +23°C° 0 mm 2 mps 732 mmHg 91%
02:00 +23°C° 0 mm 2 mps 732 mmHg 92%
03:00 +23°C° 0 mm 2 mps 732 mmHg 93%
04:00 +23°C° 0 mm 2 mps 732 mmHg 94%
05:00 +23°C° 0 mm 2 mps 732 mmHg 93%
06:00 +23°C° 0 mm 2 mps 732 mmHg 92%
07:00 +23°C° 0 mm 2 mps 733 mmHg 91%
08:00 +25°C° 0 mm 2 mps 733 mmHg 87%
09:00 +26°C° 0 mm 3 mps 733 mmHg 83%
10:00 +27°C° 0 mm 4 mps 734 mmHg 78%
11:00 +28°C° 0 mm 4 mps 733 mmHg 76%
12:00 +28°C° 0 mm 4 mps 732 mmHg 74%
13:00 +29°C° 0 mm 4 mps 732 mmHg 71%
14:00 +29°C° 0 mm 4 mps 731 mmHg 70%
15:00 +30°C° 0 mm 4 mps 731 mmHg 69%
16:00 +30°C° 0 mm 3 mps 731 mmHg 68%
17:00 +29°C° 0 mm 3 mps 731 mmHg 73%
18:00 +28°C° 0 mm 3 mps 731 mmHg 78%
19:00 +27°C° 0 mm 2 mps 731 mmHg 83%
20:00 +26°C° 0 mm 2 mps 731 mmHg 84%
21:00 +26°C° 0 mm 2 mps 732 mmHg 86%
22:00 +25°C° 0 mm 2 mps 732 mmHg 87%
23:00 +25°C° 0.3 mm 1 mps 732 mmHg 89%
Show more